Terminal Aerodrome Forecast
Issued by NWS

Home | Current Version | Previous Version | Text Only | Print | Product List | Glossary On
Versions: 1 2 3 4 5 6 7 8 9 10 11 12 13 14 15 16 17 18 19 20 21 22 23 24 25 26 27 28 29 30 31 32 33 34 35 36 37 38 39 40 41 42 43 44 45
000
FTUS44 KHGX 210107 AAA
TAFCXO
TAF AMD
KCXO 210107Z 2101/2124 03005KT P6SM OVC022
     FM210400 VRB04KT P6SM OVC015
     FM211100 00000KT P6SM BKN015
     FM211700 16006KT P6SM BKN015 BKN070
     FM212000 17006KT P6SM SCT015 BKN060=

USA.gov is the U.S. government's official web portal to all federal, state and local government web resources and services.